Total_Precipitation_Accumulation
0.00 0.00 0.00 0.00 0.00 0.00 0.00 0.00 0.00 0.00 0.00 0.00 0.03 0.00 0.00 0.03 0.03 0.05 0.02 0.00 0.00 0.00 0.00 0.00 0.00 0.00 0.00 0.00 0.00 0.00 0.00 0.00 0.00 0.00 0.00 0.00 0.00 0.00 0.00 0.00 0.00 0.00 0.00 0.00 0.00 0.00 0.00 0.00 0.00 0.00 0.00 0.00 0.00 0.01 0.01 0.00 0.00 0.00 0.00 0.00 0.00 0.01 0.00 0.01 0.02 0.01 0.01 0.00 0.00 0.00 0.00 0.00 0.00 0.00 0.00 0.00 0.01 0.01 0.00 0.01 0.01 0.01 0.01 0.02 0.01
0.00 0.00 0.00 0.00 0.00 0.00 0.00 0.00 0.00 0.00 0.00 0.00 0.00 0.00 0.00 0.04 0.01 0.00 0.00 0.01 0.00 0.00 0.00 0.00 0.01 0.00 0.00 0.00 0.01 0.00 0.00 0.00 0.00 0.00 0.00 0.00 0.00 0.00 0.00 0.00 0.00 0.00 0.00 0.00 0.00 0.00 0.00 0.00 0.00 0.00 0.00 0.00 0.03 0.01 0.00 0.00 0.00 0.00 0.00 0.00 0.01 0.01 0.00 0.00 0.01 0.02 0.01 0.01 0.01 0.00 0.00 0.00 0.00 0.00 0.00 0.00 0.02 0.01 0.01 0.01 0.00 0.00 0.00 0.00 0.02
0.00 0.00 0.00 0.00 0.00 0.00 0.00 0.00 0.00 0.00 0.00 0.00 0.02 0.02 0.00 0.00 0.00 0.00 0.01 0.05 0.02 0.02 0.02 0.02 0.01 0.00 0.01 0.01 0.00 0.00 0.00 0.00 0.00 0.00 0.00 0.00 0.00 0.00 0.00 0.00 0.00 0.00 0.00 0.00 0.00 0.00 0.00 0.00 0.00 0.00 0.00 0.00 0.00 0.00 0.00 0.00 0.00 0.00 0.00 0.00 0.00 0.00 0.01 0.00 0.01 0.03 0.02 0.00 0.00 0.00 0.00 0.01 0.00 0.01 0.00 0.00 0.00 0.01 0.01 0.02 0.04 0.02 0.01 0.00 0.00
0.01 0.00 0.00 0.00 0.00 0.00 0.00 0.00 0.00 0.00 0.00 0.00 0.00 0.00 0.00 0.00 0.00 0.01 0.00 0.01 0.01 0.02 0.02 0.02 0.02 0.03 0.03 0.02 0.02 0.02 0.02 0.01 0.00 0.00 0.00 0.00 0.00 0.00 0.00 0.00 0.00 0.00 0.00 0.00 0.00 0.00 0.00 0.00 0.00 0.00 0.00 0.00 0.00 0.00 0.00 0.00 0.00 0.01 0.00 0.00 0.01 0.01 0.01 0.01 0.03 0.03 0.04 0.01 0.00 0.00 0.00 0.00 0.01 0.00 0.00 0.00 0.01 0.01 0.02 0.01 0.00 0.00 0.00 0.00 0.00
0.00 0.00 0.00 0.00 0.00 0.00 0.00 0.00 0.01 0.01 0.01 0.00 0.00 0.00 0.00 0.00 0.00 0.00 0.00 0.00 0.00 0.03 0.05 0.06 0.05 0.02 0.01 0.02 0.04 0.05 0.03 0.01 0.00 0.00 0.00 0.00 0.00 0.00 0.00 0.00 0.00 0.00 0.00 0.00 0.00 0.00 0.00 0.00 0.00 0.00 0.00 0.00 0.00 0.00 0.00 0.00 0.02 0.03 0.01 0.02 0.01 0.00 0.02 0.05 0.05 0.03 0.02 0.04 0.01 0.01 0.00 0.00 0.00 0.00 0.00 0.01 0.02 0.00 0.00 0.00 0.00 0.00 0.00 0.01 0.02
0.03 0.09 0.04 0.02 0.00 0.00 0.00 0.01 0.01 0.01 0.00 0.00 0.00 0.00 0.00 0.00 0.00 0.00 0.01 0.03 0.05 0.07 0.07 0.04 0.01 0.00 0.01 0.02 0.03 0.03 0.01 0.00 0.00 0.00 0.00 0.00 0.00 0.00 0.00 0.00 0.00 0.00 0.00 0.00 0.00 0.00 0.00 0.00 0.00 0.00 0.00 0.00 0.00 0.00 0.00 0.01 0.00 0.00 0.00 0.05 0.04 0.08 0.07 0.04 0.02 0.02 0.04 0.03 0.04 0.06 0.03 0.03 0.03 0.01 0.01 0.01 0.01 0.02 0.02 0.01 0.00 0.01 0.01 0.01 0.01
0.00 0.00 0.04 0.07 0.07 0.02 0.01 0.00 0.00 0.00 0.02 0.03 0.19 0.01 0.01 0.00 0.00 0.01 0.03 0.02 0.01 0.02 0.01 0.00 0.00 0.00 0.01 0.00 0.00 0.01 0.00 0.00 0.00 0.00 0.00 0.01 0.00 0.00 0.00 0.00 0.00 0.00 0.00 0.01 0.01 0.00 0.01 0.00 0.00 0.01 0.00 0.01 0.00 0.00 0.01 0.01 0.01 0.01 0.01 0.07 0.04 0.03 0.01 0.02 0.01 0.01 0.06 0.04 0.01 0.01 0.05 0.01 0.01 0.06 0.01 0.00 0.01 0.00 0.02 0.02 0.02 0.02 0.01 0.01 0.02
0.00 0.00 0.01 0.00 0.00 0.01 0.00 0.00 0.00 0.00 0.00 0.00 0.00 0.00 0.00 0.00 0.00 0.02 0.02 0.01 0.00 0.00 0.00 0.00 0.00 0.00 0.00 0.00 0.00 0.00 0.00 0.00 0.00 0.00 0.00 0.00 0.00 0.00 0.00 0.00 0.00 0.00 0.00 0.00 0.00 0.00 0.00 0.00 0.00 0.00 0.00 0.01 0.01 0.01 0.01 0.07 0.05 0.04 0.01 0.01 0.01 0.00 0.01 0.00 0.00 0.01 0.01 0.01 0.02 0.03 0.01 0.01 0.01 0.02 0.01 0.02 0.00 0.02 0.01 0.01 0.02 0.01 0.03 0.08 0.04
0.01 0.02 0.01 0.02 0.01 0.01 0.01 0.00 0.00 0.00 0.00 0.08 0.18 0.01 0.00 0.00 0.00 0.00 0.01 0.01 0.00 0.00 0.00 0.00 0.00 0.00 0.00 0.00 0.00 0.00 0.00 0.00 0.00 0.00 0.00 0.00 0.00 0.00 0.00 0.00 0.00 0.00 0.00 0.00 0.00 0.01 0.02 0.01 0.01 0.00 0.01 0.00 0.00 0.00 0.00 0.00 0.00 0.01 0.01 0.01 0.01 0.00 0.00 0.00 0.00 0.00 0.01 0.02 0.01 0.01 0.01 0.02 0.02 0.03 0.02 0.01 0.05 0.06 0.05 0.01 0.01 0.01 0.01 0.03 0.07
0.00 0.00 0.01 0.01 0.00 0.04 0.00 0.00 0.00 0.00 0.00 0.00 0.00 0.00 0.00 0.00 0.00 0.00 0.00 0.00 0.00 0.00 0.00 0.00 0.00 0.00 0.00 0.00 0.00 0.00 0.00 0.00 0.00 0.00 0.00 0.00 0.00 0.02 0.00 0.00 0.00 0.00 0.01 0.01 0.03 0.04 0.02 0.02 0.01 0.00 0.00 0.00 0.00 0.03 0.01 0.01 0.00 0.00 0.01 0.00 0.01 0.01 0.00 0.00 0.00 0.01 0.00 0.01 0.01 0.01 0.03 0.04 0.03 0.02 0.03 0.03 0.02 0.03 0.05 0.02 0.04 0.08 0.02 0.02 0.03
0.00 0.00 0.00 0.00 0.01 0.00 0.00 0.00 0.00 0.00 0.00 0.00 0.00 0.00 0.00 0.00 0.00 0.00 0.00 0.00 0.00 0.00 0.00 0.00 0.01 0.01 0.00 0.00 0.00 0.00 0.00 0.00 0.00 0.00 0.00 0.00 0.04 0.02 0.03 0.02 0.01 0.00 0.03 0.07 0.13 0.02 0.02 0.00 0.01 0.02 0.00 0.00 0.01 0.02 0.01 0.00 0.00 0.00 0.00 0.00 0.00 0.01 0.00 0.00 0.00 0.01 0.02 0.01 0.03 0.02 0.03 0.02 0.02 0.02 0.03 0.03 0.04 0.07 0.04 0.02 0.03 0.05 0.06 0.05 0.04
0.01 0.01 0.01 0.00 0.00 0.00 0.00 0.00 0.00 0.00 0.00 0.00 0.00 0.00 0.00 0.00 0.00 0.00 0.00 0.00 0.00 0.00 0.01 0.03 0.02 0.00 0.01 0.00 0.02 0.01 0.00 0.00 0.00 0.00 0.00 0.02 0.02 0.08 0.07 0.01 0.09 0.05 0.13 0.10 0.03 0.01 0.01 0.03 0.02 0.01 0.04 0.03 0.01 0.02 0.02 0.00 0.00 0.00 0.00 0.00 0.00 0.00 0.00 0.01 0.02 0.02 0.02 0.04 0.04 0.04 0.02 0.01 0.03 0.02 0.06 0.05 0.05 0.03 0.02 0.05 0.03 0.06 0.08 0.06 0.04
0.00 0.00 0.01 0.00 0.00 0.00 0.00 0.00 0.00 0.00 0.00 0.00 0.00 0.00 0.00 0.00 0.00 0.00 0.00 0.00 0.00 0.00 0.00 0.00 0.00 0.00 0.00 0.00 0.00 0.02 0.01 0.00 0.00 0.00 0.00 0.04 0.10 0.16 0.37 0.54 0.28 0.22 0.03 0.06 0.18 0.03 0.03 0.03 0.03 0.03 0.03 0.01 0.03 0.03 0.04 0.02 0.01 0.01 0.02 0.02 0.03 0.04 0.03 0.03 0.03 0.07 0.07 0.06 0.05 0.02 0.02 0.02 0.03 0.03 0.03 0.02 0.02 0.05 0.06 0.08 0.06 0.07 0.05 0.05 0.02
0.00 0.00 0.00 0.00 0.00 0.00 0.00 0.00 0.00 0.00 0.00 0.00 0.00 0.00 0.00 0.00 0.00 0.00 0.00 0.00 0.00 0.00 0.00 0.00 0.00 0.00 0.00 0.00 0.00 0.00 0.00 0.00 0.00 0.02 0.06 0.25 0.26 0.18 2.18 1.18 0.34 0.05 0.05 0.06 0.02 0.03 0.05 0.04 0.04 0.03 0.06 0.08 0.11 0.08 0.09 0.05 0.03 0.05 0.08 0.11 0.07 0.02 0.02 0.02 0.04 0.07 0.06 0.03 0.04 0.06 0.03 0.02 0.03 0.03 0.03 0.05 0.07 0.06 0.04 0.06 0.07 0.05 0.04 0.03 0.01
0.00 0.00 0.00 0.00 0.00 0.00 0.00 0.00 0.00 0.00 0.00 0.00 0.00 0.00 0.00 0.00 0.00 0.00 0.00 0.00 0.00 0.00 0.01 0.03 0.00 0.00 0.00 0.03 0.00 0.00 0.00 0.00 0.00 0.00 0.02 0.34 0.08 0.22 1.62 2.35 0.54 0.19 0.18 0.05 0.02 0.01 0.01 0.02 0.05 0.18 0.21 0.38 0.18 0.09 0.12 0.09 0.07 0.03 0.04 0.01 0.02 0.04 0.06 0.04 0.05 0.05 0.03 0.02 0.04 0.06 0.02 0.02 0.02 0.02 0.04 0.01 0.02 0.12 0.07 0.04 0.02 0.02 0.01 0.01 0.01
0.00 0.00 0.00 0.00 0.00 0.00 0.00 0.00 0.00 0.00 0.00 0.00 0.00 0.00 0.00 0.00 0.00 0.00 0.00 0.00 0.12 0.31 0.00 0.00 0.00 0.02 0.00 0.00 0.01 0.01 0.00 0.00 0.00 0.00 0.09 0.09 0.14 0.37 0.59 1.68 0.45 0.21 0.41 0.61 0.46 0.13 0.06 0.11 0.16 0.21 0.15 0.10 0.12 0.04 0.06 0.05 0.05 0.03 0.12 0.06 0.05 0.04 0.02 0.01 0.00 0.01 0.02 0.05 0.02 0.02 0.02 0.02 0.00 0.01 0.04 0.03 0.03 0.01 0.01 0.01 0.01 0.02 0.06 0.02 0.04
0.00 0.00 0.00 0.00 0.00 0.00 0.00 0.00 0.00 0.00 0.00 0.00 0.00 0.00 0.00 0.00 0.00 0.00 0.02 0.16 0.04 0.03 0.00 0.00 0.00 0.00 0.00 0.00 0.00 0.01 0.00 0.00 0.00 0.00 0.00 0.00 0.02 0.21 1.33 0.21 0.41 0.68 0.45 0.46 0.30 0.34 0.29 0.18 0.12 0.10 0.09 0.04 0.04 0.04 0.04 0.05 0.07 0.06 0.03 0.02 0.01 0.05 0.02 0.06 0.01 0.01 0.00 0.00 0.00 0.00 0.00 0.00 0.00 0.00 0.00 0.00 0.01 0.04 0.08 0.06 0.05 0.11 0.10 0.14 0.05
0.00 0.00 0.00 0.00 0.00 0.00 0.00 0.00 0.00 0.00 0.00 0.00 0.00 0.00 0.00 0.00 0.00 0.01 0.01 0.01 0.01 0.00 0.01 0.02 0.01 0.00 0.01 0.01 0.01 0.00 0.00 0.00 0.00 0.00 0.00 0.00 0.38 0.97 0.09 0.08 0.13 0.45 1.36 0.86 0.56 0.40 0.18 0.16 0.07 0.03 0.02 0.02 0.12 0.02 0.04 0.04 0.02 0.00 0.00 0.01 0.03 0.02 0.02 0.01 0.02 0.01 0.01 0.00 0.00 0.00 0.00 0.00 0.00 0.00 0.00 0.00 0.00 0.02 0.02 0.10 0.04 0.40 0.18 0.13 0.09
0.00 0.00 0.00 0.00 0.00 0.00 0.00 0.00 0.00 0.00 0.00 0.00 0.00 0.00 0.00 0.00 0.00 0.00 0.00 0.00 0.00 0.00 0.02 0.01 0.01 0.01 0.02 0.03 0.01 0.01 0.04 0.03 0.00 0.00 0.00 0.01 0.47 0.85 0.90 0.12 0.08 0.09 0.19 0.16 0.06 0.07 0.04 0.02 0.02 0.01 0.01 0.01 0.01 0.00 0.00 0.02 0.01 0.00 0.02 0.02 0.03 0.01 0.01 0.03 0.05 0.06 0.06 0.01 0.04 0.02 0.01 0.00 0.01 0.01 0.01 0.00 0.00 0.00 0.07 0.04 0.05 0.10 0.14 0.05 0.29
0.00 0.00 0.00 0.00 0.00 0.00 0.00 0.00 0.00 0.00 0.00 0.00 0.00 0.00 0.00 0.00 0.00 0.00 0.00 0.00 0.00 0.02 0.03 0.01 0.01 0.01 0.02 0.01 0.01 0.01 0.02 0.05 0.01 0.00 0.00 0.01 0.03 0.64 1.32 0.50 0.18 0.08 0.03 0.01 0.02 0.02 0.03 0.03 0.02 0.01 0.01 0.01 0.01 0.05 0.03 0.01 0.01 0.02 0.06 0.02 0.01 0.00 0.20 0.03 0.01 0.01 0.02 0.00 0.00 0.00 0.00 0.01 0.01 0.01 0.02 0.03 0.04 0.01 0.01 0.03 0.03 0.04 0.14 0.36 0.48
0.00 0.00 0.00 0.00 0.00 0.00 0.00 0.00 0.00 0.00 0.00 0.00 0.00 0.00 0.00 0.00 0.00 0.00 0.00 0.00 0.01 0.00 0.01 0.01 0.00 0.00 0.00 0.01 0.01 0.02 0.01 0.03 0.04 0.00 0.00 0.01 0.24 0.64 0.18 1.19 0.90 0.33 0.15 0.17 0.05 0.03 0.03 0.14 0.02 0.01 0.01 0.00 0.00 0.00 0.00 0.00 0.00 0.04 0.11 0.46 0.70 0.44 0.52 0.17 0.05 0.02 0.01 0.00 0.01 0.00 0.00 0.00 0.00 0.03 0.02 0.03 0.01 0.00 0.00 0.00 0.02 0.03 0.12 0.12 0.54
0.00 0.00 0.00 0.00 0.00 0.00 0.00 0.00 0.00 0.00 0.00 0.00 0.00 0.00 0.00 0.00 0.00 0.00 0.00 0.02 0.04 0.02 0.02 0.01 0.00 0.00 0.00 0.00 0.01 0.01 0.00 0.00 0.02 0.01 0.01 0.02 0.08 0.11 0.65 0.67 0.03 0.03 0.05 0.08 0.11 0.15 0.02 0.09 0.02 0.00 0.00 0.00 0.00 0.00 0.00 0.00 0.01 0.07 0.17 1.43 1.61 1.15 1.11 0.46 0.31 0.07 0.03 0.01 0.01 0.00 0.01 0.01 0.01 0.01 0.00 0.01 0.00 0.00 0.00 0.00 0.00 0.00 0.02 0.39 0.46
0.00 0.00 0.00 0.00 0.00 0.00 0.00 0.00 0.00 0.01 0.00 0.00 0.02 0.02 0.00 0.01 0.01 0.02 0.01 0.02 0.01 0.01 0.01 0.01 0.00 0.00 0.27 0.41 0.00 0.01 0.01 0.01 0.01 0.04 0.04 0.03 0.10 0.12 0.42 0.38 0.02 0.02 0.08 0.05 0.05 0.07 0.08 0.03 0.01 0.00 0.00 0.00 0.01 0.01 0.00 0.01 0.02 0.02 0.30 1.06 3.34 1.97 1.14 0.77 0.34 0.15 0.08 0.03 0.03 0.02 0.01 0.01 0.00 0.00 0.00 0.00 0.00 0.00 0.00 0.00 0.00 0.04 0.25 0.31 0.23
0.00 0.00 0.00 0.00 0.00 0.00 0.00 0.01 0.00 0.00 0.00 0.00 0.01 0.01 0.02 0.00 0.00 0.03 0.07 0.22 0.57 0.67 0.69 0.76 0.71 0.54 0.01 0.01 0.02 0.03 0.18 0.51 0.79 0.11 1.43 1.11 0.16 0.09 0.02 0.02 0.07 0.03 0.05 0.12 0.16 0.18 0.21 0.02 0.00 0.03 0.04 0.07 0.05 0.04 0.03 0.04 0.07 0.05 0.07 0.16 1.59 2.94 1.22 0.86 0.13 0.38 0.59 0.04 0.04 0.03 0.02 0.01 0.00 0.00 0.00 0.01 0.00 0.00 0.04 0.05 0.10 0.20 0.16 0.16 0.15
0.00 0.01 0.01 0.00 0.00 0.00 0.00 0.01 0.01 0.03 0.02 0.01 0.01 0.01 0.00 0.16 0.38 0.50 0.63 0.55 0.35 0.10 0.13 0.24 0.28 0.19 0.21 0.17 0.11 0.17 0.39 0.52 0.47 0.23 0.31 0.15 0.08 0.09 0.02 0.03 0.23 0.13 0.04 0.08 0.05 0.10 0.03 0.04 0.01 0.09 0.09 0.11 0.10 0.02 0.06 0.04 0.02 0.05 0.05 0.04 1.10 3.02 0.55 0.17 0.09 0.80 0.19 0.08 0.05 0.03 0.01 0.01 0.02 0.15 0.10 0.28 0.06 0.03 0.11 0.33 0.47 0.29 0.18 0.28 0.32
0.81 1.03 0.81 0.76 0.58 0.31 0.15 0.13 0.22 0.35 0.41 0.52 0.66 0.74 0.77 0.76 0.66 0.52 0.34 0.43 0.39 0.40 0.38 0.15 0.19 0.24 0.17 0.18 0.30 0.42 0.36 0.49 0.42 0.27 0.28 0.29 0.16 0.08 0.05 0.05 0.15 0.15 0.13 0.06 0.03 0.02 0.01 0.01 0.01 0.01 0.04 0.06 0.06 0.07 0.07 0.06 0.03 0.04 0.02 0.06 0.38 0.32 0.13 0.14 0.28 0.31 0.10 0.06 0.03 0.02 0.01 0.01 0.36 0.57 0.60 0.34 0.39 0.19 0.21 0.30 0.34 0.41 0.54 0.48 0.31
1.53 1.54 1.37 1.40 1.41 1.09 0.99 1.00 0.94 0.77 0.65 0.61 0.59 0.45 0.38 0.52 0.40 0.46 0.39 0.35 0.28 0.20 0.16 0.22 0.18 0.17 0.22 0.24 0.37 0.27 0.25 0.21 0.19 0.23 0.15 0.06 0.15 0.14 0.17 0.21 0.20 0.30 0.14 0.05 0.10 0.24 0.19 0.09 0.10 0.04 0.03 0.04 0.04 0.03 0.02 0.03 0.07 0.07 0.09 0.10 0.14 0.12 0.08 0.06 0.07 0.21 0.04 0.04 0.04 0.03 0.03 0.24 0.86 0.97 0.97 0.48 0.55 0.46 0.34 0.41 0.44 0.39 0.29 0.25 0.26
0.50 0.35 0.36 0.43 0.40 0.37 0.33 0.24 0.35 0.44 0.50 0.37 0.35 0.18 0.12 0.15 0.19 0.12 0.07 0.04 0.12 0.17 0.13 0.09 0.11 0.16 0.19 0.40 0.42 0.36 0.29 0.25 0.27 0.42 0.36 0.22 0.15 0.12 0.48 0.68 1.28 1.13 0.35 0.17 0.20 0.20 0.42 1.05 1.45 1.55 1.42 0.28 0.16 0.21 0.25 0.20 0.28 0.16 0.19 0.20 0.12 0.17 0.12 0.10 0.12 0.18 0.13 0.14 0.17 0.21 0.47 0.97 1.66 1.50 0.65 0.32 0.21 0.38 0.41 0.40 0.38 0.42 0.35 0.42 0.52
0.73 0.40 0.28 0.23 0.08 0.10 0.19 0.42 0.40 0.33 0.33 0.21 0.10 0.18 0.06 0.04 0.02 0.09 0.05 0.06 0.11 0.22 0.35 0.39 0.44 0.57 0.68 0.98 1.34 1.50 1.47 1.28 0.90 1.08 2.17 2.47 2.43 2.32 2.01 1.54 1.14 0.94 0.87 0.89 1.55 1.81 1.71 1.37 1.63 0.97 0.63 0.29 0.33 0.24 0.33 0.28 0.23 0.21 0.17 0.18 0.14 0.12 0.16 0.22 0.20 0.19 0.19 0.46 0.86 0.76 1.08 1.72 1.20 0.90 0.72 0.65 0.58 0.35 0.26 0.34 0.24 0.45 0.41 0.66 0.35
0.98 1.03 0.67 0.63 0.68 0.69 0.49 0.38 0.23 0.23 0.26 0.10 0.12 0.16 0.08 0.10 0.07 0.13 0.22 0.13 0.23 0.34 0.36 0.71 0.65 0.61 0.62 0.59 0.74 0.56 0.66 0.57 1.12 1.68 1.45 1.26 0.76 0.56 0.68 0.73 0.87 1.43 2.08 2.25 1.87 2.17 1.64 1.35 0.60 0.43 0.33 0.30 0.38 0.35 0.44 0.34 0.31 0.37 0.30 0.29 0.23 0.30 0.19 0.26 0.31 0.39 0.49 0.51 0.68 1.12 1.37 1.62 1.02 0.62 0.39 0.33 0.26 0.24 0.15 0.24 0.46 0.47 0.74 0.39 0.35
0.67 0.87 1.57 1.46 1.22 1.14 0.92 0.87 1.06 1.03 1.10 1.10 0.56 0.42 0.31 0.32 0.25 0.32 0.18 0.22 0.11 0.06 0.09 0.05 0.25 0.36 0.69 1.02 0.88 1.00 1.00 0.91 0.38 0.60 0.29 0.11 0.23 0.23 0.38 0.73 1.20 1.11 1.07 1.17 1.46 1.88 1.53 0.61 0.40 0.35 0.46 0.89 0.94 0.52 0.32 0.30 0.29 0.30 0.24 0.21 0.15 0.19 0.41 0.35 0.47 0.52 0.75 1.08 1.35 1.43 1.41 0.81 0.57 0.57 0.63 0.39 0.27 0.25 0.49 0.55 0.53 0.50 0.45 0.45 0.73
0.28 0.24 0.28 0.41 0.60 0.67 0.89 1.26 1.53 1.52 1.32 1.47 1.29 1.10 1.16 0.90 0.68 0.60 0.68 0.86 0.81 0.66 0.61 0.84 0.78 0.91 0.81 0.80 0.68 0.77 0.30 0.14 0.12 0.39 0.47 0.43 1.33 1.66 1.91 1.69 1.22 1.02 0.46 0.39 0.63 0.72 0.69 0.61 0.43 0.63 0.89 0.82 0.38 0.36 0.52 0.41 0.42 0.43 0.36 0.57 0.38 0.35 0.27 0.37 0.34 0.65 1.13 1.66 1.42 1.24 1.15 0.97 0.78 0.47 0.42 0.63 0.48 0.74 0.79 0.74 0.78 0.89 0.95 1.20 1.19
0.08 0.11 0.18 0.13 0.13 0.10 0.33 0.29 0.57 0.51 0.82 1.13 0.88 0.74 0.61 0.89 1.18 1.48 1.64 1.46 1.49 1.32 1.47 1.46 1.29 0.96 0.73 0.45 0.56 0.51 0.66 0.68 0.54 0.57 0.19 0.34 1.18 1.64 1.34 1.25 1.23 0.69 0.88 1.82 1.35 1.56 1.41 1.25 1.11 1.01 0.65 0.52 0.49 0.44 0.56 0.49 0.52 0.80 0.64 0.57 0.49 0.41 0.47 0.64 0.99 1.46 1.34 1.32 1.17 1.02 0.80 0.76 0.73 0.98 0.82 0.66 0.49 0.49 0.37 0.60 0.58 0.82 0.83 0.77 0.72
0.15 0.12 0.20 0.18 0.12 0.15 0.17 0.24 0.29 0.37 0.40 0.52 0.40 0.24 0.21 0.40 1.15 0.85 0.48 0.70 1.34 1.55 1.46 1.19 1.05 1.03 1.48 1.36 1.15 1.06 1.21 1.40 1.81 2.15 2.20 2.42 1.85 1.03 1.22 0.81 0.63 0.41 0.69 1.29 1.00 0.96 0.96 0.89 0.63 0.39 0.38 0.38 0.44 0.33 0.49 0.80 0.97 0.60 0.57 0.55 0.67 0.79 0.97 1.43 1.42 1.37 1.46 1.23 1.18 1.24 1.16 1.16 1.06 0.98 0.82 0.88 0.90 1.03 0.91 0.75 0.96 1.33 0.99 0.85 0.74
0.35 0.70 0.94 1.63 1.70 1.37 1.42 1.14 0.51 0.57 0.47 0.82 0.79 0.80 0.95 1.14 0.75 0.72 0.59 0.59 0.46 0.43 0.70 0.96 1.10 1.52 1.48 1.85 2.08 1.74 1.28 1.13 1.33 0.68 0.17 0.25 0.84 1.79 3.07 2.71 2.76 2.25 1.75 1.63 1.36 0.91 0.90 0.85 0.90 0.58 0.49 0.54 0.76 0.89 1.18 0.78 0.71 1.12 1.36 1.48 1.80 1.91 1.55 1.55 1.37 1.39 1.26 1.40 1.34 0.99 0.93 0.95 1.08 1.04 0.84 0.97 1.11 1.00 0.96 0.89 0.99 1.11 0.98 0.88 0.92
0.19 0.35 0.32 0.67 1.02 0.75 0.41 0.79 1.29 1.07 0.69 0.74 1.10 1.51 1.02 0.91 0.90 0.82 1.10 1.09 0.77 0.88 0.78 0.91 1.35 2.00 1.34 1.01 1.15 1.48 1.25 1.08 0.62 0.74 0.91 1.03 0.98 0.63 1.59 2.15 1.84 1.82 1.32 1.26 1.09 0.75 0.79 0.85 1.02 1.34 1.19 1.58 1.38 1.71 1.85 2.15 2.25 2.03 1.59 1.45 1.47 1.62 1.86 2.13 2.13 2.03 2.04 2.23 2.07 1.80 1.51 1.29 1.16 1.34 1.21 1.07 1.02 0.96 0.99 1.03 0.96 1.02 0.94 1.04 1.34
0.69 0.34 0.40 0.44 0.49 0.76 0.61 0.44 0.44 0.82 0.61 0.55 0.60 0.77 0.79 1.05 1.44 1.51 1.31 1.33 1.45 1.23 0.91 0.70 0.59 0.77 1.23 1.13 0.65 0.47 0.42 0.81 1.10 0.94 0.77 0.78 1.11 1.29 1.55 1.46 1.41 1.18 1.36 1.62 1.40 1.23 1.14 1.33 1.81 1.63 1.79 1.28 0.99 0.97 1.09 1.51 1.60 1.42 1.23 1.23 1.17 1.34 1.33 1.26 1.30 1.37 1.30 1.27 1.33 1.43 1.41 1.41 1.39 1.33 1.14 1.11 1.19 1.30 1.35 1.48 1.60 1.60 1.60 1.41 1.26
0.44 0.40 0.36 0.45 0.53 0.48 0.30 0.41 0.47 0.52 1.01 0.86 0.57 0.45 0.62 0.71 1.18 1.65 1.39 0.92 1.03 1.36 1.48 1.66 1.38 1.20 1.22 0.80 0.75 0.64 0.61 0.35 0.56 0.48 0.59 1.10 1.98 2.13 1.91 1.62 1.64 1.52 1.49 1.17 1.39 1.24 1.15 1.14 1.20 1.22 1.23 1.23 1.34 1.22 1.37 1.14 1.09 1.36 1.47 1.33 1.33 1.40 1.49 1.69 1.41 1.44 1.21 1.12 1.09 1.16 1.25 1.39 1.69 1.91 2.10 2.16 2.04 1.97 1.85 1.59 1.62 1.63 1.93 2.06 2.02
1.00 0.46 0.43 0.33 0.42 0.62 0.71 0.49 0.34 0.48 0.68 1.26 1.62 1.82 1.64 1.47 1.63 1.21 1.57 1.96 2.08 1.63 1.26 0.95 1.79 1.65 1.63 1.92 2.09 2.47 2.12 1.66 1.03 1.02 1.38 1.78 1.45 1.31 1.55 1.68 1.61 1.69 1.79 1.44 1.37 1.29 1.47 1.29 1.25 1.18 1.11 1.19 1.22 1.11 1.14 1.21 1.19 1.27 1.52 1.49 1.40 1.46 1.53 1.76 1.75 2.19 2.40 2.42 2.07 1.71 1.33 1.26 1.22 1.29 1.60 1.82 2.14 2.32 2.33 2.17 1.82 1.56 1.46 1.57 1.65
1.05 0.55 0.54 0.64 0.41 0.52 0.78 0.86 0.73 0.40 0.54 0.89 1.43 1.42 1.33 0.80 0.58 0.91 1.72 1.48 1.36 1.59 4.42 4.28 2.46 1.93 1.53 1.44 1.62 1.52 1.68 2.20 2.22 1.54 1.37 1.23 1.38 0.98 0.72 0.84 0.74 0.92 1.05 1.05 0.88 0.93 2.04 2.35 1.78 1.53 1.25 1.03 1.22 1.13 1.32 1.11 1.08 0.98 0.97 1.14 1.06 0.99 0.96 1.19 1.26 1.28 1.34 1.58 1.79 1.92 2.03 2.08 1.93 1.67 1.18 1.06 1.15 1.28 1.38 1.40 1.43 1.47 1.34 1.20 1.08
0.71 0.83 0.74 1.00 0.98 0.99 1.14 0.88 0.95 0.94 0.76 0.76 0.55 0.74 0.49 0.31 0.34 0.56 0.69 0.51 1.65 3.23 0.57 0.83 0.82 0.89 0.72 0.72 0.62 0.65 0.92 1.40 1.62 1.48 1.42 1.19 0.95 0.87 1.10 1.13 0.83 0.67 0.69 0.67 0.78 0.79 0.84 0.86 0.95 1.01 0.94 0.94 0.92 0.96 0.84 1.10 1.24 1.27 1.01 0.95 1.10 1.57 1.89 1.68 1.03 0.89 1.02 1.20 1.23 1.35 1.68 1.79 1.78 1.79 1.83 1.68 1.37 1.04 0.85 0.77 0.81 0.86 0.86 0.83 0.76
0.59 0.91 0.74 0.85 1.03 1.00 1.17 1.36 1.37 1.08 0.76 0.48 0.49 0.36 0.49 0.29 0.19 0.21 0.25 0.23 0.27 0.29 0.41 0.23 0.31 0.33 0.29 0.32 0.32 0.33 0.38 0.49 0.59 0.64 0.72 0.88 1.01 0.89 0.93 1.20 1.47 1.45 1.51 1.33 1.07 0.87 0.80 0.95 0.87 0.96 0.99 0.78 0.72 1.17 1.28 1.07 0.93 1.04 1.66 1.87 1.31 1.06 1.15 1.42 1.48 1.34 1.35 1.11 0.89 0.88 0.81 0.67 0.68 0.73 0.82 0.83 0.83 0.73 0.68 0.66 0.66 0.68 0.72 0.76 0.75
1.31 1.61 1.43 1.30 0.71 0.69 0.69 0.69 0.66 0.80 0.80 0.62 0.33 0.31 0.43 0.41 0.23 0.16 0.16 0.18 0.46 0.21 0.21 0.16 0.15 0.13 0.19 0.13 0.12 0.10 0.10 0.09 0.11 0.19 0.29 0.35 0.60 0.93 1.22 1.17 0.88 0.96 1.43 1.33 1.67 1.46 1.50 1.54 1.16 1.07 1.25 1.29 1.11 0.93 0.96 1.18 1.24 1.08 1.04 1.17 1.32 1.36 1.01 0.77 0.80 0.86 0.85 0.66 0.65 0.50 0.55 0.55 0.59 0.66 0.78 0.77 0.80 0.81 0.78 0.70 0.63 0.59 0.59 0.57 0.56
1.26 0.97 0.93 0.83 0.99 0.84 0.89 1.00 0.88 0.46 0.38 0.98 1.02 1.09 0.94 0.86 0.73 0.62 0.28 0.31 0.41 0.39 0.44 0.48 0.25 0.17 0.08 0.08 0.08 0.14 0.08 0.05 0.04 0.05 0.05 0.06 0.10 0.13 0.20 0.23 0.44 0.90 0.84 0.91 0.82 0.93 0.97 0.90 0.80 0.66 0.65 0.73 0.76 0.69 0.53 0.60 0.66 0.72 0.62 0.58 0.60 0.69 0.78 0.71 0.69 0.58 0.58 0.70 0.67 0.60 0.52 0.45 0.44 0.46 0.44 0.44 0.49 0.48 0.47 0.48 0.47 0.42 0.37 0.34 0.32
0.58 1.00 1.45 2.01 1.32 0.75 0.80 0.48 0.37 0.34 0.29 0.37 0.59 0.66 0.65 0.39 0.37 0.53 0.64 0.50 0.36 0.14 0.09 0.30 0.56 0.25 0.09 0.06 0.07 0.04 0.05 0.03 0.16 0.02 0.01 0.04 0.08 0.07 0.08 0.07 0.09 0.05 0.14 0.18 0.41 0.53 0.64 0.68 0.76 0.59 0.53 0.45 0.46 0.55 0.49 0.34 0.29 0.29 0.31 0.31 0.30 0.28 0.26 0.30 0.31 0.34 0.36 0.31 0.37 0.39 0.41 0.42 0.41 0.36 0.31 0.28 0.23 0.25 0.22 0.20 0.21 0.21 0.20 0.19 0.18
0.17 0.24 0.28 0.30 0.48 0.60 0.32 0.37 0.29 0.28 0.32 0.39 0.20 0.47 0.56 0.41 0.45 0.39 0.16 0.34 0.37 0.30 0.19 0.15 0.30 0.54 0.33 0.23 0.09 0.03 0.04 0.02 0.02 0.11 0.36 0.10 0.04 0.15 0.06 0.07 0.03 0.02 0.04 0.06 0.13 0.22 0.19 0.14 0.19 0.19 0.21 0.22 0.24 0.23 0.25 0.25 0.22 0.20 0.19 0.19 0.15 0.14 0.14 0.13 0.13 0.12 0.13 0.13 0.14 0.13 0.13 0.15 0.17 0.14 0.14 0.14 0.14 0.12 0.12 0.13 0.11 0.10 0.09 0.09 0.08
0.09 0.12 0.11 0.12 0.31 0.84 1.33 1.09 0.77 0.39 0.34 0.38 0.73 0.26 0.38 0.30 0.17 0.26 0.31 0.69 0.61 0.79 0.61 1.17 0.72 0.62 0.73 0.50 0.13 0.03 0.16 0.25 0.50 0.50 0.08 0.08 0.05 0.23 0.28 0.02 0.14 0.03 0.04 0.10 0.12 0.09 0.07 0.06 0.07 0.04 0.03 0.05 0.09 0.14 0.17 0.19 0.21 0.20 0.16 0.13 0.10 0.08 0.07 0.06 0.06 0.05 0.05 0.04 0.03 0.03 0.03 0.03 0.02 0.02 0.01 0.01 0.01 0.02 0.02 0.02 0.02 0.03 0.03 0.04 0.03
0.02 0.04 0.09 0.15 0.12 0.09 0.19 0.30 0.34 0.47 0.52 0.78 0.64 0.42 0.58 0.59 0.36 0.28 0.39 0.36 0.41 0.49 0.30 0.23 0.29 0.60 0.50 0.57 0.72 0.52 0.21 0.05 0.07 0.05 0.06 0.10 0.09 0.11 0.39 0.07 0.03 0.04 0.03 0.01 0.04 0.04 0.07 0.05 0.05 0.11 0.09 0.05 0.04 0.09 0.08 0.11 0.20 0.17 0.24 0.08 0.06 0.05 0.05 0.03 0.03 0.02 0.01 0.01 0.01 0.01 0.00 0.00 0.01 0.00 0.00 0.00 0.00 0.01 0.01 0.01 0.01 0.00 0.00 0.00 0.00
0.17 0.09 0.03 0.01 0.07 0.06 0.11 0.18 0.52 0.19 0.17 0.25 0.69 1.20 0.64 0.60 0.37 0.32 0.26 0.37 0.43 0.45 0.26 0.26 0.20 0.24 0.16 0.11 0.12 0.17 0.32 0.16 0.05 0.09 0.07 0.08 0.09 0.50 0.18 0.12 0.08 0.05 0.05 0.12 0.08 0.08 0.10 0.15 0.11 0.17 0.12 0.08 0.13 0.13 0.13 0.12 0.11 0.09 0.05 0.04 0.02 0.02 0.02 0.01 0.01 0.02 0.01 0.00 0.01 0.01 0.00 0.01 0.00 0.00 0.01 0.01 0.01 0.01 0.01 0.01 0.01 0.01 0.01 0.01 0.00
0.49 0.46 0.44 0.21 0.19 0.41 0.06 0.05 0.16 0.68 0.58 0.94 0.57 0.59 0.55 0.65 0.67 0.48 0.33 0.47 0.56 0.67 0.46 0.44 0.22 0.32 0.29 0.15 0.20 0.17 0.24 0.11 0.05 0.04 0.07 0.05 0.23 0.24 0.20 0.11 0.04 0.07 0.17 0.22 0.17 0.11 0.15 0.19 0.23 0.25 0.33 0.17 0.20 0.14 0.21 0.25 0.22 0.13 0.13 0.08 0.01 0.01 0.02 0.02 0.01 0.01 0.01 0.01 0.01 0.01 0.01 0.02 0.05 0.03 0.02 0.02 0.01 0.00 0.02 0.09 0.12 0.04 0.03 0.02 0.02
0.42 0.45 0.65 0.55 0.81 0.73 1.08 0.75 0.74 0.46 0.21 0.15 0.25 0.34 0.78 1.01 0.88 1.20 0.98 0.93 0.91 0.53 0.63 0.64 0.71 0.70 0.56 0.40 0.22 0.22 0.17 0.17 0.32 0.11 0.08 0.22 0.25 0.26 0.17 0.12 0.07 0.04 0.06 0.09 0.15 0.09 0.24 0.37 0.38 0.24 0.32 0.36 0.23 0.10 0.11 0.19 0.19 0.13 0.10 0.08 0.07 0.04 0.02 0.05 0.09 0.05 0.04 0.04 0.07 0.35 0.12 0.07 0.05 0.03 0.03 0.02 0.06 0.07 0.09 0.04 0.07 0.04 0.09 0.04 0.04